Location: Potomac
(46.8816°N, 113.5795°W)
Time: 22:22:46
(UTC+00:00)

UKube-1 - Pass Details

Date: 26 June 2022
Orbit: 608 x 615 km, 98.4° (Epoch: 07 August)

Event Time Altitude Azimuth Distance (km) Brightness Sun altitude
Rises 04:44:02 0° 25° (NNE) 2,896 ? -9.6°
Reaches altitude 10° 04:46:35 10° 40° (NE) 1,985 ? -9.9°
Maximum altitude 04:50:07 24° 95° (E) 1,276 ? -10.3°
Enters shadow 04:52:39 15° 140° (SE) 1,679 ? -10.6°
